Year,Month,Day,Hour,Minute,Value (Times are PST for windgust in km/hr)
2014,02,15,00,03,3.20
2014,02,15,00,04,1.60
2014,02,15,00,09,1.60
2014,02,15,00,10,1.60
2014,02,15,00,11,1.60
2014,02,15,00,13,1.60
2014,02,15,00,14,4.80
2014,02,15,00,15,4.80
2014,02,15,00,16,4.80
2014,02,15,00,28,1.60
2014,02,15,00,29,3.20
2014,02,15,00,31,1.60
2014,02,15,00,43,1.60
2014,02,15,00,48,3.20
2014,02,15,00,49,1.60
2014,02,15,01,00,1.60
2014,02,15,01,01,1.60
2014,02,15,01,02,3.20
2014,02,15,01,03,1.60
2014,02,15,01,07,3.20
2014,02,15,01,08,1.60
2014,02,15,01,27,3.20
2014,02,15,01,28,3.20
2014,02,15,01,38,1.60
2014,02,15,01,43,1.60
2014,02,15,01,46,1.60
2014,02,15,01,47,1.60
2014,02,15,01,49,1.60
2014,02,15,01,50,1.60
2014,02,15,01,54,3.20
2014,02,15,01,55,3.20
2014,02,15,01,59,1.60
2014,02,15,02,00,4.80
2014,02,15,02,01,4.80
2014,02,15,02,02,4.80
2014,02,15,02,12,1.60
2014,02,15,02,13,1.60
2014,02,15,02,16,1.60
2014,02,15,02,21,1.60
2014,02,15,02,22,1.60
2014,02,15,02,24,3.20
2014,02,15,02,25,3.20
2014,02,15,02,27,1.60
2014,02,15,02,28,3.20
2014,02,15,02,34,1.60
2014,02,15,02,35,1.60
2014,02,15,02,41,1.60
2014,02,15,02,44,1.60
2014,02,15,02,52,1.60
2014,02,15,02,53,1.60
2014,02,15,02,54,3.20
2014,02,15,02,55,1.60
2014,02,15,02,57,1.60
2014,02,15,03,01,1.60
2014,02,15,03,02,1.60
2014,02,15,03,10,1.60
2014,02,15,03,17,1.60
2014,02,15,03,18,1.60
2014,02,15,03,22,1.60
2014,02,15,03,23,1.60
2014,02,15,03,25,4.80
2014,02,15,03,26,1.60
2014,02,15,03,28,4.80
2014,02,15,03,29,1.60
2014,02,15,03,40,1.60
2014,02,15,03,42,3.20
2014,02,15,03,50,1.60
2014,02,15,04,02,1.60
2014,02,15,04,05,1.60
2014,02,15,04,09,6.40
2014,02,15,04,10,4.80
2014,02,15,04,11,6.40
2014,02,15,04,12,3.20
2014,02,15,04,17,1.60
2014,02,15,04,23,3.20
2014,02,15,04,25,1.60
2014,02,15,04,26,1.60
2014,02,15,04,27,3.20
2014,02,15,04,37,1.60
2014,02,15,04,40,3.20
2014,02,15,04,41,3.20
2014,02,15,04,46,1.60
2014,02,15,04,50,1.60
2014,02,15,04,59,1.60
2014,02,15,05,11,1.60
2014,02,15,05,15,3.20
2014,02,15,05,16,3.20
2014,02,15,05,17,3.20
2014,02,15,05,19,1.60
2014,02,15,05,20,1.60
2014,02,15,05,21,4.80
2014,02,15,05,27,4.80
2014,02,15,05,28,3.20
2014,02,15,05,29,1.60
2014,02,15,05,30,1.60
2014,02,15,05,34,1.60
2014,02,15,05,38,4.80
2014,02,15,05,39,6.40
2014,02,15,05,40,4.80
2014,02,15,05,41,1.60
2014,02,15,05,42,3.20
2014,02,15,05,43,3.20
2014,02,15,05,44,1.60
2014,02,15,05,45,3.20
2014,02,15,05,47,3.20
2014,02,15,05,48,3.20
2014,02,15,05,49,3.20
2014,02,15,05,51,9.60
2014,02,15,05,52,9.60
2014,02,15,05,53,3.20
2014,02,15,05,54,4.80
2014,02,15,05,55,6.40
2014,02,15,05,56,1.60
2014,02,15,05,59,4.80
2014,02,15,06,00,1.60
2014,02,15,06,01,6.40
2014,02,15,06,02,4.80
2014,02,15,06,03,1.60
2014,02,15,06,04,6.40
2014,02,15,06,06,3.20
2014,02,15,06,07,3.20
2014,02,15,06,09,1.60
2014,02,15,06,10,4.80
2014,02,15,06,11,3.20
2014,02,15,06,12,1.60
2014,02,15,06,13,3.20
2014,02,15,06,14,3.20
2014,02,15,06,15,6.40
2014,02,15,06,16,4.80
2014,02,15,06,17,3.20
2014,02,15,06,18,6.40
2014,02,15,06,19,3.20
2014,02,15,06,20,6.40
2014,02,15,06,22,8.10
2014,02,15,06,23,8.10
2014,02,15,06,24,9.60
2014,02,15,06,25,9.60
2014,02,15,06,26,6.40
2014,02,15,06,27,6.40
2014,02,15,06,28,8.10
2014,02,15,06,29,4.80
2014,02,15,06,30,6.40
2014,02,15,06,31,6.40
2014,02,15,06,32,4.80
2014,02,15,06,33,8.10
2014,02,15,06,34,1.60
2014,02,15,06,35,9.60
2014,02,15,06,36,9.60
2014,02,15,06,37,4.80
2014,02,15,06,38,8.10
2014,02,15,06,39,8.10
2014,02,15,06,40,6.40
2014,02,15,06,41,6.40
2014,02,15,06,42,6.40
2014,02,15,06,43,9.60
2014,02,15,06,44,8.10
2014,02,15,06,45,4.80
2014,02,15,06,46,8.10
2014,02,15,06,47,8.10
2014,02,15,06,48,6.40
2014,02,15,06,49,9.60
2014,02,15,06,50,9.60
2014,02,15,06,51,4.80
2014,02,15,06,52,11.30
2014,02,15,06,53,11.30
2014,02,15,06,54,4.80
2014,02,15,06,55,4.80
2014,02,15,06,56,6.40
2014,02,15,06,57,6.40
2014,02,15,06,58,8.10
2014,02,15,06,59,6.40
2014,02,15,07,00,11.30
2014,02,15,07,01,3.20
2014,02,15,07,02,6.40
2014,02,15,07,03,3.20
2014,02,15,07,04,11.30
2014,02,15,07,05,12.90
2014,02,15,07,06,14.50
2014,02,15,07,07,8.10
2014,02,15,07,08,1.60
2014,02,15,07,09,6.40
2014,02,15,07,10,9.60
2014,02,15,07,11,3.20
2014,02,15,07,12,6.40
2014,02,15,07,13,4.80
2014,02,15,07,14,4.80
2014,02,15,07,15,6.40
2014,02,15,07,16,8.10
2014,02,15,07,17,8.10
2014,02,15,07,18,9.60
2014,02,15,07,19,8.10
2014,02,15,07,20,16.10
2014,02,15,07,21,11.30
2014,02,15,07,22,8.10
2014,02,15,07,23,8.10
2014,02,15,07,24,11.30
2014,02,15,07,25,8.10
2014,02,15,07,26,9.60
2014,02,15,07,27,20.90
2014,02,15,07,28,20.90
2014,02,15,07,29,6.40
2014,02,15,07,30,4.80
2014,02,15,07,31,6.40
2014,02,15,07,32,1.60
2014,02,15,07,33,4.80
2014,02,15,07,34,3.20
2014,02,15,07,35,4.80
2014,02,15,07,36,9.60
2014,02,15,07,37,6.40
2014,02,15,07,38,3.20
2014,02,15,07,39,9.60
2014,02,15,07,40,4.80
2014,02,15,07,41,1.60
2014,02,15,07,42,11.30
2014,02,15,07,43,19.30
2014,02,15,07,44,8.10
2014,02,15,07,45,8.10
2014,02,15,07,46,17.70
2014,02,15,07,47,8.10
2014,02,15,07,48,9.60
2014,02,15,07,49,6.40
2014,02,15,07,50,6.40
2014,02,15,07,51,6.40
2014,02,15,07,52,4.80
2014,02,15,07,53,8.10
2014,02,15,07,54,11.30
2014,02,15,07,55,9.60
2014,02,15,07,56,3.20
2014,02,15,07,57,4.80
2014,02,15,07,58,9.60
2014,02,15,07,59,4.80
2014,02,15,08,00,9.60
2014,02,15,08,01,9.60
2014,02,15,08,02,6.40
2014,02,15,08,03,8.10
2014,02,15,08,04,9.60
2014,02,15,08,05,9.60
2014,02,15,08,06,3.20
2014,02,15,08,07,8.10
2014,02,15,08,08,4.80
2014,02,15,08,09,6.40
2014,02,15,08,10,8.10
2014,02,15,08,11,3.20
2014,02,15,08,12,8.10
2014,02,15,08,13,9.60
2014,02,15,08,14,9.60
2014,02,15,08,15,1.60
2014,02,15,08,16,8.10
2014,02,15,08,17,4.80
2014,02,15,08,18,1.60
2014,02,15,08,19,6.40
2014,02,15,08,20,6.40
2014,02,15,08,21,4.80
2014,02,15,08,22,3.20
2014,02,15,08,23,8.10
2014,02,15,08,24,9.60
2014,02,15,08,25,4.80
2014,02,15,08,26,3.20
2014,02,15,08,27,9.60
2014,02,15,08,28,11.30
2014,02,15,08,29,9.60
2014,02,15,08,30,4.80
2014,02,15,08,31,8.10
2014,02,15,08,32,8.10
2014,02,15,08,33,9.60
2014,02,15,08,34,4.80
2014,02,15,08,35,4.80
2014,02,15,08,36,4.80
2014,02,15,08,37,4.80
2014,02,15,08,38,6.40
2014,02,15,08,39,8.10
2014,02,15,08,40,4.80
2014,02,15,08,41,6.40
2014,02,15,08,42,4.80
2014,02,15,08,43,6.40
2014,02,15,08,44,17.70
2014,02,15,08,45,14.50
2014,02,15,08,46,3.20
2014,02,15,08,47,9.60
2014,02,15,08,48,1.60
2014,02,15,08,49,1.60
2014,02,15,08,50,8.10
2014,02,15,08,51,9.60
2014,02,15,08,52,3.20
2014,02,15,08,53,1.60
2014,02,15,08,54,4.80
2014,02,15,08,55,9.60
2014,02,15,08,56,1.60
2014,02,15,08,58,3.20
2014,02,15,08,59,3.20
2014,02,15,09,00,6.40
2014,02,15,09,01,4.80
2014,02,15,09,02,3.20
2014,02,15,09,03,1.60
2014,02,15,09,04,4.80
2014,02,15,09,05,8.10
2014,02,15,09,07,8.10
2014,02,15,09,09,3.20
2014,02,15,09,10,1.60
2014,02,15,09,12,1.60
2014,02,15,09,13,1.60
2014,02,15,09,15,3.20
2014,02,15,09,16,6.40
2014,02,15,09,17,4.80
2014,02,15,09,18,3.20
2014,02,15,09,19,1.60
2014,02,15,09,20,3.20
2014,02,15,09,22,4.80
2014,02,15,09,23,4.80
2014,02,15,09,24,4.80
2014,02,15,09,27,1.60
2014,02,15,09,28,1.60
2014,02,15,09,29,8.10
2014,02,15,09,30,9.60
2014,02,15,09,32,3.20
2014,02,15,09,33,4.80
2014,02,15,09,34,4.80
2014,02,15,09,36,1.60
2014,02,15,09,37,1.60
2014,02,15,09,39,1.60
2014,02,15,09,40,6.40
2014,02,15,09,41,4.80
2014,02,15,09,42,4.80
2014,02,15,09,43,6.40
2014,02,15,09,44,6.40
2014,02,15,09,45,3.20
2014,02,15,09,46,4.80
2014,02,15,09,47,6.40
2014,02,15,09,48,1.60
2014,02,15,09,49,1.60
2014,02,15,09,51,1.60
2014,02,15,09,52,3.20
2014,02,15,09,53,1.60
2014,02,15,09,54,3.20
2014,02,15,09,55,1.60
2014,02,15,09,56,8.10
2014,02,15,09,57,3.20
2014,02,15,09,58,1.60
2014,02,15,10,00,4.80
2014,02,15,10,01,4.80
2014,02,15,10,03,3.20
2014,02,15,10,04,1.60
2014,02,15,10,05,1.60
2014,02,15,10,07,1.60
2014,02,15,10,10,1.60
2014,02,15,10,11,8.10
2014,02,15,10,12,4.80
2014,02,15,10,13,6.40
2014,02,15,10,14,6.40
2014,02,15,10,15,3.20
2014,02,15,10,16,4.80
2014,02,15,10,17,1.60
2014,02,15,10,18,3.20
2014,02,15,10,19,3.20
2014,02,15,10,20,1.60
2014,02,15,10,21,1.60
2014,02,15,10,23,1.60
2014,02,15,10,24,1.60
2014,02,15,10,25,4.80
2014,02,15,10,26,1.60
2014,02,15,10,27,3.20
2014,02,15,10,28,1.60
2014,02,15,10,31,1.60
2014,02,15,10,32,6.40
2014,02,15,10,33,3.20
2014,02,15,10,34,4.80
2014,02,15,10,35,4.80
2014,02,15,10,36,6.40
2014,02,15,10,37,4.80
2014,02,15,10,38,1.60
2014,02,15,10,40,6.40
2014,02,15,10,41,8.10
2014,02,15,10,42,4.80
2014,02,15,10,43,4.80
2014,02,15,10,44,1.60
2014,02,15,10,45,3.20
2014,02,15,10,46,3.20
2014,02,15,10,47,4.80
2014,02,15,10,48,6.40
2014,02,15,10,49,6.40
2014,02,15,10,50,3.20
2014,02,15,10,51,1.60
2014,02,15,10,52,1.60
2014,02,15,10,53,8.10
2014,02,15,10,54,3.20
2014,02,15,10,55,4.80
2014,02,15,10,56,4.80
2014,02,15,10,58,1.60
2014,02,15,10,59,8.10
2014,02,15,11,00,11.30
2014,02,15,11,01,12.90
2014,02,15,11,02,9.60
2014,02,15,11,03,6.40
2014,02,15,11,04,8.10
2014,02,15,11,05,9.60
2014,02,15,11,06,19.30
2014,02,15,11,07,9.60
2014,02,15,11,08,3.20
2014,02,15,11,09,6.40
2014,02,15,11,10,6.40
2014,02,15,11,11,6.40
2014,02,15,11,12,3.20
2014,02,15,11,13,1.60
2014,02,15,11,16,1.60
2014,02,15,11,17,6.40
2014,02,15,11,18,6.40
2014,02,15,11,19,6.40
2014,02,15,11,20,6.40
2014,02,15,11,21,4.80
2014,02,15,11,22,4.80
2014,02,15,11,23,4.80
2014,02,15,11,24,4.80
2014,02,15,11,25,4.80
2014,02,15,11,26,6.40
2014,02,15,11,27,1.60
2014,02,15,11,28,1.60
2014,02,15,11,33,3.20
2014,02,15,11,34,8.10
2014,02,15,11,35,3.20
2014,02,15,11,38,4.80
2014,02,15,11,39,6.40
2014,02,15,11,40,9.60
2014,02,15,11,41,6.40
2014,02,15,11,42,6.40
2014,02,15,11,43,6.40
2014,02,15,11,45,1.60
2014,02,15,11,46,1.60
2014,02,15,11,48,4.80
2014,02,15,11,49,6.40
2014,02,15,11,50,4.80
2014,02,15,11,52,6.40
2014,02,15,11,53,6.40
2014,02,15,11,54,4.80
2014,02,15,11,55,1.60
2014,02,15,11,56,3.20
2014,02,15,11,57,6.40
2014,02,15,11,58,4.80
2014,02,15,11,59,3.20
2014,02,15,12,00,1.60
2014,02,15,12,01,4.80
2014,02,15,12,02,3.20
2014,02,15,12,03,6.40
2014,02,15,12,04,8.10
2014,02,15,12,05,3.20
2014,02,15,12,07,1.60
2014,02,15,12,08,3.20
2014,02,15,12,09,1.60
2014,02,15,12,10,1.60
2014,02,15,12,11,6.40
2014,02,15,12,12,3.20
2014,02,15,12,13,3.20
2014,02,15,12,14,1.60
2014,02,15,12,15,3.20
2014,02,15,12,16,1.60
2014,02,15,12,18,1.60
2014,02,15,12,19,6.40
2014,02,15,12,20,11.30
2014,02,15,12,21,6.40
2014,02,15,12,22,4.80
2014,02,15,12,24,6.40
2014,02,15,12,25,4.80
2014,02,15,12,27,1.60
2014,02,15,12,28,1.60
2014,02,15,12,29,4.80
2014,02,15,12,30,4.80
2014,02,15,12,31,1.60
2014,02,15,12,32,3.20
2014,02,15,12,33,4.80
2014,02,15,12,34,4.80
2014,02,15,12,35,3.20
2014,02,15,12,37,4.80
2014,02,15,12,38,3.20
2014,02,15,12,39,4.80
2014,02,15,12,40,6.40
2014,02,15,12,41,4.80
2014,02,15,12,43,1.60
2014,02,15,12,44,6.40
2014,02,15,12,45,8.10
2014,02,15,12,46,6.40
2014,02,15,12,47,1.60
2014,02,15,12,48,6.40
2014,02,15,12,49,6.40
2014,02,15,12,50,4.80
2014,02,15,12,51,6.40
2014,02,15,12,52,8.10
2014,02,15,12,53,3.20
2014,02,15,12,54,3.20
2014,02,15,12,55,4.80
2014,02,15,12,57,6.40
2014,02,15,12,58,6.40
2014,02,15,12,59,11.30
2014,02,15,13,00,9.60
2014,02,15,13,01,6.40
2014,02,15,13,02,4.80
2014,02,15,13,03,6.40
2014,02,15,13,04,9.60
2014,02,15,13,05,9.60
2014,02,15,13,06,8.10
2014,02,15,13,07,6.40
2014,02,15,13,08,8.10
2014,02,15,13,09,6.40
2014,02,15,13,10,4.80
2014,02,15,13,11,11.30
2014,02,15,13,12,12.90
2014,02,15,13,13,11.30
2014,02,15,13,14,8.10
2014,02,15,13,15,14.50
2014,02,15,13,16,16.10
2014,02,15,13,17,8.10
2014,02,15,13,18,4.80
2014,02,15,13,19,6.40
2014,02,15,13,20,6.40
2014,02,15,13,21,8.10
2014,02,15,13,22,19.30
2014,02,15,13,23,16.10
2014,02,15,13,24,11.30
2014,02,15,13,25,9.60
2014,02,15,13,26,8.10
2014,02,15,13,27,8.10
2014,02,15,13,28,9.60
2014,02,15,13,29,20.90
2014,02,15,13,30,32.20
2014,02,15,13,31,14.50
2014,02,15,13,32,14.50
2014,02,15,13,33,8.10
2014,02,15,13,34,6.40
2014,02,15,13,35,8.10
2014,02,15,13,36,11.30
2014,02,15,13,37,22.50
2014,02,15,13,38,6.40
2014,02,15,13,39,14.50
2014,02,15,13,40,9.60
2014,02,15,13,41,8.10
2014,02,15,13,42,9.60
2014,02,15,13,43,8.10
2014,02,15,13,44,8.10
2014,02,15,13,45,27.40
2014,02,15,13,46,25.70
2014,02,15,13,47,11.30
2014,02,15,13,48,9.60
2014,02,15,13,49,4.80
2014,02,15,13,50,3.20
2014,02,15,13,51,4.80
2014,02,15,13,52,1.60
2014,02,15,13,54,14.50
2014,02,15,13,55,17.70
2014,02,15,13,56,6.40
2014,02,15,13,57,9.60
2014,02,15,13,58,14.50
2014,02,15,13,59,8.10
2014,02,15,14,00,6.40
2014,02,15,14,01,4.80
2014,02,15,14,02,1.60
2014,02,15,14,03,4.80
2014,02,15,14,05,6.40
2014,02,15,14,06,3.20
2014,02,15,14,08,6.40
2014,02,15,14,09,1.60
2014,02,15,14,10,4.80
2014,02,15,14,13,3.20
2014,02,15,14,14,4.80
2014,02,15,14,15,4.80
2014,02,15,14,16,4.80
2014,02,15,14,18,9.60
2014,02,15,14,19,8.10
2014,02,15,14,20,8.10
2014,02,15,14,22,3.20
2014,02,15,14,23,4.80
2014,02,15,14,24,4.80
2014,02,15,14,27,4.80
2014,02,15,14,28,1.60
2014,02,15,14,34,1.60
2014,02,15,14,38,1.60
2014,02,15,14,46,1.60
2014,02,15,14,55,1.60
2014,02,15,14,58,1.60
2014,02,15,14,59,3.20
2014,02,15,15,07,1.60
2014,02,15,15,08,1.60
2014,02,15,15,33,1.60
2014,02,15,15,34,4.80
2014,02,15,15,35,1.60
2014,02,15,15,36,1.60
2014,02,15,15,37,3.20
2014,02,15,15,38,3.20
2014,02,15,15,39,3.20
2014,02,15,15,40,4.80
2014,02,15,15,41,4.80
2014,02,15,15,42,1.60
2014,02,15,15,43,4.80
2014,02,15,15,44,4.80
2014,02,15,15,47,6.40
2014,02,15,15,48,3.20
2014,02,15,15,49,11.30
2014,02,15,15,50,11.30
2014,02,15,15,51,11.30
2014,02,15,15,52,9.60
2014,02,15,15,54,3.20
2014,02,15,15,55,4.80
2014,02,15,15,56,3.20
2014,02,15,15,58,4.80
2014,02,15,15,59,3.20
2014,02,15,16,02,8.10
2014,02,15,16,03,3.20
2014,02,15,16,04,4.80
2014,02,15,16,05,14.50
2014,02,15,16,06,11.30
2014,02,15,16,07,11.30
2014,02,15,16,08,9.60
2014,02,15,16,09,9.60
2014,02,15,16,10,3.20
2014,02,15,16,11,6.40
2014,02,15,16,12,9.60
2014,02,15,16,13,4.80
2014,02,15,16,14,11.30
2014,02,15,16,15,6.40
2014,02,15,16,16,1.60
2014,02,15,16,17,6.40
2014,02,15,16,18,8.10
2014,02,15,16,19,14.50
2014,02,15,16,20,6.40
2014,02,15,16,21,9.60
2014,02,15,16,22,12.90
2014,02,15,16,23,8.10
2014,02,15,16,24,9.60
2014,02,15,16,25,8.10
2014,02,15,16,26,9.60
2014,02,15,16,27,9.60
2014,02,15,16,28,8.10
2014,02,15,16,29,8.10
2014,02,15,16,30,4.80
2014,02,15,16,31,6.40
2014,02,15,16,32,8.10
2014,02,15,16,33,4.80
2014,02,15,16,34,9.60
2014,02,15,16,35,9.60
2014,02,15,16,36,4.80
2014,02,15,16,37,8.10
2014,02,15,16,38,8.10
2014,02,15,16,39,6.40
2014,02,15,16,40,8.10
2014,02,15,16,41,6.40
2014,02,15,16,42,8.10
2014,02,15,16,43,4.80
2014,02,15,16,44,3.20
2014,02,15,16,45,4.80
2014,02,15,16,46,4.80
2014,02,15,16,47,6.40
2014,02,15,16,48,4.80
2014,02,15,16,51,1.60
2014,02,15,16,52,4.80
2014,02,15,16,53,4.80
2014,02,15,16,54,4.80
2014,02,15,16,55,4.80
2014,02,15,16,56,6.40
2014,02,15,16,57,3.20
2014,02,15,16,58,6.40
2014,02,15,16,59,4.80
2014,02,15,17,00,4.80
2014,02,15,17,06,3.20
2014,02,15,17,07,1.60
2014,02,15,17,08,1.60
2014,02,15,17,12,3.20
2014,02,15,17,13,6.40
2014,02,15,17,17,3.20
2014,02,15,17,18,3.20
2014,02,15,17,26,3.20
2014,02,15,17,27,1.60
2014,02,15,17,28,1.60
2014,02,15,17,29,3.20
2014,02,15,17,42,1.60
2014,02,15,17,43,1.60
2014,02,15,17,44,4.80
2014,02,15,17,45,1.60
2014,02,15,17,53,1.60
2014,02,15,17,54,4.80
2014,02,15,17,59,1.60
2014,02,15,18,02,4.80
2014,02,15,18,03,3.20
2014,02,15,18,05,4.80
2014,02,15,18,06,4.80
2014,02,15,18,10,1.60
2014,02,15,18,13,4.80
2014,02,15,18,14,4.80
2014,02,15,18,15,4.80
2014,02,15,18,18,1.60
2014,02,15,18,19,1.60
2014,02,15,18,20,1.60
2014,02,15,18,21,6.40
2014,02,15,18,22,4.80
2014,02,15,18,23,11.30
2014,02,15,18,24,16.10
2014,02,15,18,25,14.50
2014,02,15,18,26,8.10
2014,02,15,18,27,4.80
2014,02,15,18,28,3.20
2014,02,15,18,30,14.50
2014,02,15,18,31,8.10
2014,02,15,18,32,8.10
2014,02,15,18,33,8.10
2014,02,15,18,34,4.80
2014,02,15,18,35,3.20
2014,02,15,18,36,4.80
2014,02,15,18,37,4.80
2014,02,15,18,38,1.60
2014,02,15,18,39,3.20
2014,02,15,18,41,1.60
2014,02,15,18,45,1.60
2014,02,15,18,47,3.20
2014,02,15,18,49,1.60
2014,02,15,18,50,3.20
2014,02,15,18,51,1.60
2014,02,15,18,52,1.60
2014,02,15,18,54,1.60
2014,02,15,18,56,6.40
2014,02,15,18,57,8.10
2014,02,15,18,58,16.10
2014,02,15,18,59,12.90
2014,02,15,19,00,8.10
2014,02,15,19,01,14.50
2014,02,15,19,02,6.40
2014,02,15,19,03,4.80
2014,02,15,19,04,8.10
2014,02,15,19,05,11.30
2014,02,15,19,06,16.10
2014,02,15,19,07,14.50
2014,02,15,19,08,19.30
2014,02,15,19,09,9.60
2014,02,15,19,10,17.70
2014,02,15,19,11,17.70
2014,02,15,19,12,11.30
2014,02,15,19,13,11.30
2014,02,15,19,14,17.70
2014,02,15,19,15,9.60
2014,02,15,19,16,19.30
2014,02,15,19,17,8.10
2014,02,15,19,18,1.60
2014,02,15,19,19,29.00
2014,02,15,19,20,11.30
2014,02,15,19,21,17.70
2014,02,15,19,22,17.70
2014,02,15,19,23,17.70
2014,02,15,19,24,17.70
2014,02,15,19,25,11.30
2014,02,15,19,26,11.30
2014,02,15,19,27,14.50
2014,02,15,19,28,16.10
2014,02,15,19,29,6.40
2014,02,15,19,30,4.80
2014,02,15,19,31,4.80
2014,02,15,19,32,6.40
2014,02,15,19,33,11.30
2014,02,15,19,34,19.30
2014,02,15,19,35,24.20
2014,02,15,19,36,16.10
2014,02,15,19,37,9.60
2014,02,15,19,38,6.40
2014,02,15,19,39,11.30
2014,02,15,19,40,6.40
2014,02,15,19,41,14.50
2014,02,15,19,42,14.50
2014,02,15,19,43,11.30
2014,02,15,19,46,16.10
2014,02,15,19,47,8.10
2014,02,15,19,48,6.40
2014,02,15,19,49,19.30
2014,02,15,19,50,9.60
2014,02,15,19,51,16.10
2014,02,15,19,52,11.30
2014,02,15,19,53,14.50
2014,02,15,19,54,14.50
2014,02,15,19,55,37.00
2014,02,15,19,56,29.00
2014,02,15,19,57,16.10
2014,02,15,19,58,11.30
2014,02,15,19,59,20.90
2014,02,15,20,00,14.50
2014,02,15,20,01,9.60
2014,02,15,20,02,17.70
2014,02,15,20,03,4.80
2014,02,15,20,04,3.20
2014,02,15,20,05,6.40
2014,02,15,20,06,9.60
2014,02,15,20,07,12.90
2014,02,15,20,08,9.60
2014,02,15,20,09,6.40
2014,02,15,20,10,6.40
2014,02,15,20,11,4.80
2014,02,15,20,12,4.80
2014,02,15,20,14,3.20
2014,02,15,20,15,8.10
2014,02,15,20,16,14.50
2014,02,15,20,17,9.60
2014,02,15,20,18,6.40
2014,02,15,20,19,8.10
2014,02,15,20,20,9.60
2014,02,15,20,21,22.50
2014,02,15,20,22,17.70
2014,02,15,20,23,11.30
2014,02,15,20,24,8.10
2014,02,15,20,26,6.40
2014,02,15,20,27,6.40
2014,02,15,20,28,4.80
2014,02,15,20,29,4.80
2014,02,15,20,30,11.30
2014,02,15,20,31,16.10
2014,02,15,20,32,17.70
2014,02,15,20,33,6.40
2014,02,15,20,36,4.80
2014,02,15,20,37,4.80
2014,02,15,20,38,11.30
2014,02,15,20,39,9.60
2014,02,15,20,40,16.10
2014,02,15,20,41,9.60
2014,02,15,20,42,3.20
2014,02,15,20,43,6.40
2014,02,15,20,44,9.60
2014,02,15,20,45,11.30
2014,02,15,20,46,29.00
2014,02,15,20,47,29.00
2014,02,15,20,48,27.40
2014,02,15,20,49,22.50
2014,02,15,20,50,14.50
2014,02,15,20,51,25.70
2014,02,15,20,52,20.90
2014,02,15,20,53,16.10
2014,02,15,20,54,19.30
2014,02,15,20,55,17.70
2014,02,15,20,56,20.90
2014,02,15,20,57,27.40
2014,02,15,20,58,27.40
2014,02,15,20,59,22.50
2014,02,15,21,00,17.70
2014,02,15,21,01,25.70
2014,02,15,21,02,25.70
2014,02,15,21,03,33.80
2014,02,15,21,04,25.70
2014,02,15,21,05,35.40
2014,02,15,21,06,32.20
2014,02,15,21,07,11.30
2014,02,15,21,08,22.50
2014,02,15,21,09,17.70
2014,02,15,21,10,29.00
2014,02,15,21,11,14.50
2014,02,15,21,12,25.70
2014,02,15,21,13,20.90
2014,02,15,21,14,19.30
2014,02,15,21,15,30.60
2014,02,15,21,16,22.50
2014,02,15,21,17,19.30
2014,02,15,21,18,20.90
2014,02,15,21,19,30.60
2014,02,15,21,20,22.50
2014,02,15,21,21,22.50
2014,02,15,21,22,27.40
2014,02,15,21,23,20.90
2014,02,15,21,24,17.70
2014,02,15,21,25,40.20
2014,02,15,21,26,25.70
2014,02,15,21,27,22.50
2014,02,15,21,28,27.40
2014,02,15,21,29,9.60
2014,02,15,21,30,29.00
2014,02,15,21,31,27.40
2014,02,15,21,32,22.50
2014,02,15,21,33,22.50
2014,02,15,21,34,22.50
2014,02,15,21,35,32.20
2014,02,15,21,36,38.60
2014,02,15,21,37,22.50
2014,02,15,21,38,19.30
2014,02,15,21,39,24.20
2014,02,15,21,40,29.00
2014,02,15,21,41,19.30
2014,02,15,21,42,12.90
2014,02,15,21,43,24.20
2014,02,15,21,44,20.90
2014,02,15,21,45,11.30
2014,02,15,21,46,19.30
2014,02,15,21,47,17.70
2014,02,15,21,48,32.20
2014,02,15,21,49,33.80
2014,02,15,21,50,32.20
2014,02,15,21,51,20.90
2014,02,15,21,52,9.60
2014,02,15,21,53,6.40
2014,02,15,21,54,9.60
2014,02,15,21,55,45.10
2014,02,15,21,56,38.60
2014,02,15,21,57,19.30
2014,02,15,21,58,25.70
2014,02,15,21,59,25.70
2014,02,15,22,00,8.10
2014,02,15,22,01,9.60
2014,02,15,22,02,12.90
2014,02,15,22,03,17.70
2014,02,15,22,04,37.00
2014,02,15,22,05,22.50
2014,02,15,22,06,27.40
2014,02,15,22,07,22.50
2014,02,15,22,08,8.10
2014,02,15,22,09,14.50
2014,02,15,22,10,22.50
2014,02,15,22,11,32.20
2014,02,15,22,12,14.50
2014,02,15,22,13,22.50
2014,02,15,22,14,14.50
2014,02,15,22,15,22.50
2014,02,15,22,16,9.60
2014,02,15,22,17,17.70
2014,02,15,22,18,14.50
2014,02,15,22,19,16.10
2014,02,15,22,20,16.10
2014,02,15,22,21,11.30
2014,02,15,22,22,19.30
2014,02,15,22,23,16.10
2014,02,15,22,24,22.50
2014,02,15,22,25,14.50
2014,02,15,22,26,19.30
2014,02,15,22,27,22.50
2014,02,15,22,28,16.10
2014,02,15,22,29,9.60
2014,02,15,22,30,20.90
2014,02,15,22,31,20.90
2014,02,15,22,32,9.60
2014,02,15,22,33,11.30
2014,02,15,22,34,8.10
2014,02,15,22,35,9.60
2014,02,15,22,36,6.40
2014,02,15,22,37,6.40
2014,02,15,22,38,6.40
2014,02,15,22,39,1.60
2014,02,15,22,40,22.50
2014,02,15,22,41,32.20
2014,02,15,22,42,32.20
2014,02,15,22,43,22.50
2014,02,15,22,44,11.30
2014,02,15,22,45,12.90
2014,02,15,22,46,17.70
2014,02,15,22,47,9.60
2014,02,15,22,48,17.70
2014,02,15,22,49,24.20
2014,02,15,22,50,19.30
2014,02,15,22,51,11.30
2014,02,15,22,52,24.20
2014,02,15,22,53,11.30
2014,02,15,22,54,14.50
2014,02,15,22,55,16.10
2014,02,15,22,56,8.10
2014,02,15,22,57,25.70
2014,02,15,22,58,25.70
2014,02,15,22,59,27.40
2014,02,15,23,00,22.50
2014,02,15,23,01,11.30
2014,02,15,23,02,20.90
2014,02,15,23,03,27.40
2014,02,15,23,04,19.30
2014,02,15,23,05,20.90
2014,02,15,23,06,14.50
2014,02,15,23,07,27.40
2014,02,15,23,08,24.20
2014,02,15,23,09,19.30
2014,02,15,23,10,8.10
2014,02,15,23,11,11.30
2014,02,15,23,12,29.00
2014,02,15,23,13,19.30
2014,02,15,23,14,17.70
2014,02,15,23,15,22.50
2014,02,15,23,16,16.10
2014,02,15,23,17,20.90
2014,02,15,23,18,20.90
2014,02,15,23,19,22.50
2014,02,15,23,20,17.70
2014,02,15,23,21,27.40
2014,02,15,23,22,24.20
2014,02,15,23,23,16.10
2014,02,15,23,24,19.30
2014,02,15,23,25,22.50
2014,02,15,23,26,16.10
2014,02,15,23,27,22.50
2014,02,15,23,28,17.70
2014,02,15,23,29,14.50
2014,02,15,23,30,24.20
2014,02,15,23,31,14.50
2014,02,15,23,32,14.50
2014,02,15,23,33,16.10
2014,02,15,23,34,19.30
2014,02,15,23,35,14.50
2014,02,15,23,36,6.40
2014,02,15,23,37,12.90
2014,02,15,23,38,9.60
2014,02,15,23,39,6.40
2014,02,15,23,40,16.10
2014,02,15,23,41,14.50
2014,02,15,23,42,24.20
2014,02,15,23,43,30.60
2014,02,15,23,44,20.90
2014,02,15,23,45,20.90
2014,02,15,23,46,29.00
2014,02,15,23,47,22.50
2014,02,15,23,48,20.90
2014,02,15,23,49,14.50
2014,02,15,23,50,24.20
2014,02,15,23,51,14.50
2014,02,15,23,52,11.30
2014,02,15,23,53,22.50
2014,02,15,23,54,29.00
2014,02,15,23,55,37.00
2014,02,15,23,56,40.20
2014,02,15,23,57,45.10
2014,02,15,23,58,29.00
2014,02,15,23,59,53.10
